OSCAR 7 (AO-7) 1 07530U 74089B 26145.50123808 -.00000031 00000+0 95166-4 0 9993 2 07530 101.9908 158.5111 0012321 172.6684 342.7297 12.53697657357673 PHASE 3B (AO-10) 1 14129U 83058B 26140.20547571 -.00000279 00000+0 00000+0 0 9992 2 14129 25.8960 224.2131 6020564 107.9633 323.3103 2.05872908294917 UOSAT 2 (UO-11) 1 14781U 84021B 26145.40003913 .00001063 00000+0 11394-3 0 9994 2 14781 97.8044 111.2326 0006082 257.6923 102.3614 14.90719463253732 LUSAT (LO-19) 1 20442U 90005G 26145.29777486 .00000108 00000+0 55405-4 0 9995 2 20442 98.8861 166.4716 0010425 273.7914 86.2077 14.34115051899113 EYESAT A (AO-27) 1 22825U 93061C 26145.41440539 .00000080 00000+0 47324-4 0 9997 2 22825 98.6888 212.8351 0008799 160.1409 200.0117 14.30935115703748 ITAMSAT (IO-26) 1 22826U 93061D 26145.12098987 .00000061 00000+0 39953-4 0 9990 2 22826 98.6833 212.4568 0009608 145.5525 214.6283 14.31361097704010 RADIO ROSTO (RS15) 1 23439U 94085A 26145.50026576 -.00000035 00000+0 20691-3 0 9995 2 23439 64.8188 339.9086 0155300 8.0541 352.2824 11.27583631293342 JAS-2 (FO-29) 1 24278U 96046B 26145.31709001 -.00000008 00000+0 25710-4 0 9994 2 24278 98.5263 357.3196 0350299 155.6468 206.1682 13.53273146470073 TECHSAT 1B (GO-32) 1 25397U 98043D 26145.44610883 .00000054 00000+0 43712-4 0 9991 2 25397 99.0063 137.6323 0000349 329.3516 30.7641 14.24423288448099 ISS (ZARYA) 1 25544U 98067A 26145.42220529 .00009654 00000+0 18076-3 0 9992 2 25544 51.6330 52.7989 0007470 96.3597 263.8242 15.49365963568228 PCSAT (NO-44) 1 26931U 01043C 26145.38964784 .00000117 00000+0 74589-4 0 9991 2 26931 67.0508 303.2359 0006184 263.8379 96.2019 14.31946061287189 SAUDISAT 1C (SO-50) 1 27607U 02058C 26145.43020300 .00000782 00000+0 10978-3 0 9991 2 27607 64.5514 199.3924 0075599 266.6349 92.6107 14.82991151261080 CUTE-1 (CO-55) 1 27844U 03031E 26145.48744789 .00000245 00000+0 12520-3 0 9994 2 27844 98.6738 154.3320 0008361 248.7369 111.2917 14.24319546188449 CUBESAT XI-IV (CO-57) 1 27848U 03031J 26145.46453734 .00000221 00000+0 11605-3 0 9990 2 27848 98.6770 154.0402 0008192 270.2413 89.7827 14.23606827188145 MOZHAETS 4 (RS22) 1 27939U 03042A 26145.53502465 .00000368 00000+0 65031-4 0 9992 2 27939 98.3476 329.2551 0010985 347.4988 97.1452 14.73418651212218 CUBESAT XI-V 1 28895U 05043F 26145.36827770 .00001189 00000+0 19515-3 0 9994 2 28895 98.2961 300.5153 0012780 278.4660 81.5098 14.72559828 98398 CUTE-1.7+APD II (CO-65) 1 32785U 08021C 26145.50930529 .00004558 00000+0 29063-3 0 9991 2 32785 97.8261 126.4622 0010634 103.7603 256.4809 15.09194982981771 SEEDS II (CO-66) 1 32791U 08021J 26145.47583941 .00017447 00000+0 56920-3 0 9999 2 32791 97.7521 142.3050 0004202 58.8151 301.3501 15.31851938983812 YUBILEINY (RS30) 1 32953U 08025A 26145.56460836 .00000016 00000+0 43736-4 0 9996 2 32953 82.5059 9.5136 0019840 3.8242 356.2986 12.43178367816880 KKS-1 (KISEKI) 1 33499U 09002H 26145.52002073 .00001144 00000+0 14734-3 0 9997 2 33499 98.1194 67.6038 0008224 14.5209 345.6239 14.83053917932837 SWISSCUBE 1 35932U 09051B 26145.24846162 .00000869 00000+0 18141-3 0 9998 2 35932 98.4052 52.7364 0005517 290.1938 69.8669 14.62429420885806 BEESAT-1 1 35933U 09051C 26145.17756527 .00000725 00000+0 15561-3 0 9990 2 35933 98.3981 52.3476 0004240 310.2632 49.8197 14.61676163885827 ITUPSAT1 1 35935U 09051E 26145.49091204 .00000659 00000+0 14627-3 0 9999 2 35935 98.4065 51.8816 0006585 318.1798 41.8898 14.60400249885424 XIWANG-1 (HOPE-1) 1 36122U 09072B 26145.52014512 .00000137 00000+0 47473-3 0 9998 2 36122 100.4014 99.7159 0006871 288.1470 71.8894 13.16439746790027 O/OREOS (USA 219) 1 37224U 10062C 26145.35867941 .00001849 00000+0 18073-3 0 9991 2 37224 71.9680 132.0447 0012521 113.2479 247.0011 14.93628546113233 JUGNU 1 37839U 11058B 26145.51765956 .00000410 00000+0 74348-4 0 9991 2 37839 19.9607 86.1454 0018606 185.5391 330.0267 14.13769201755816 SRMSAT 1 37841U 11058D 26145.47444316 .00000372 00000+0 58040-4 0 9991 2 37841 19.9703 196.9483 0011657 315.1236 187.5474 14.11570120754605 STRAND-1 1 39090U 13009E 26145.49844846 .00000252 00000+0 99122-4 0 9994 2 39090 98.3917 326.2922 0007551 303.5977 56.4488 14.37147743693800 ZACUBE-1 (TSHEPISOSAT) 1 39417U 13066B 26145.34328483 .00004258 00000+0 33290-3 0 9991 2 39417 97.8107 107.5560 0040371 328.7903 31.0923 15.00990132677300 GOMX-1 1 39430U 13066Q 26145.50995463 .00001374 00000+0 21206-3 0 9992 2 39430 97.6504 347.4033 0129412 149.7422 211.1339 14.69352614666586 CUBEBUG-2 (LO-74) 1 39440U 13066AA 26145.42034475 .00003578 00000+0 33344-3 0 9995 2 39440 97.8896 94.3080 0059572 102.4399 258.3495 14.93554437673590 FUNCUBE-1 (AO-73) 1 39444U 13066AE 26145.38334711 .00006815 00000+0 42758-3 0 9996 2 39444 97.8264 116.3600 0034467 282.1902 77.5466 15.09155971676228 UWE-3 1 39446U 13066AG 26145.42164723 .00004908 00000+0 42318-3 0 9990 2 39446 97.8683 101.3475 0050292 37.5590 322.9127 14.96798686674172 UNISAT-6 1 40012U 14033C 26145.40692022 .00002716 00000+0 29561-3 0 9992 2 40012 97.7853 298.5263 0046117 142.3467 218.0993 14.88090624642779 DUCHIFAT-1 1 40021U 14033M 26145.41174326 .00087416 00000+0 10765-2 0 9990 2 40021 98.0493 201.4574 0006086 156.7264 203.4267 15.59914468652195 QB50P1 1 40025U 14033R 26144.94814720 .00007321 00000+0 36516-3 0 9990 2 40025 98.0976 154.4718 0007249 313.3224 46.7403 15.17843028649509 LILACSAT-2 1 40908U 15049K 26145.49851422 .00017025 00000+0 29879-3 0 9995 2 40908 97.4678 181.4885 0006180 352.4335 7.6822 15.50592026592230 FOX-1A (AO-85) 1 40967U 15058D 26145.54620242 .00003062 00000+0 27967-3 0 9992 2 40967 64.7765 349.3386 0129440 65.4886 295.9658 14.90820633110198 CAS-2T & KS-1Q 1 41847U 16066G 26145.24509514 .00001171 00000+0 17346-3 0 9994 2 41847 98.3825 221.2420 0341711 198.9874 159.8318 14.44612230501487 RADFXSAT (FOX-1B) 1 43017U 17073E 26145.38408016 .00010588 00000+0 46260-3 0 9993 2 43017 97.4740 13.0701 0153061 47.8360 313.5754 15.12242690461948 DIWATA-2B 1 43678U 18084H 26145.49515394 .00002122 00000+0 17424-3 0 9994 2 43678 98.1138 340.7254 0011626 247.8284 112.1704 15.00325812412815 ES'HAIL 2 1 43700U 18090A 26145.23237894 .00000142 00000+0 00000+0 0 9993 2 43700 0.0385 111.3381 0001642 342.9291 258.0024 1.00273136 27444 FOX-1CLIFF (AO-95) 1 43770U 18099N 26145.13385266 .00010577 00000+0 41181-3 0 9997 2 43770 97.4400 205.4732 0010195 75.0152 285.2214 15.26130177409703 ITASAT 1 43786U 18099AE 26145.09569214 .00006696 00000+0 32508-3 0 9996 2 43786 97.4047 197.0718 0014206 76.6272 283.6545 15.18708379409406 JY1SAT (JO-97) 1 43803U 18099AX 26145.44966374 .00017010 00000+0 53839-3 0 9995 2 43803 97.4148 208.2173 0005061 9.0225 351.1107 15.32817851410145 UWE-4 1 43880U 18111E 26144.77470707 .00028353 00000+0 61165-3 0 9993 2 43880 97.5851 72.1148 0009925 60.2248 299.9986 15.44477012407165 TIANYAN 01 1 44881U 19093C 26145.49469916 .00001411 00000+0 16542-3 0 9990 2 44881 97.7531 218.2801 0014095 155.7757 204.4124 14.86476696348040 RS-44 & BREEZE-KM R/B 1 44909U 19096E 26145.33250234 .00000022 00000+0 45398-4 0 9997 2 44909 82.5226 354.8951 0217138 197.5572 161.7941 12.79748351299428 SALSAT 1 46495U 20068K 26144.98774177 .00007014 00000+0 24856-3 0 9990 2 46495 97.8855 146.6473 0010594 33.8053 326.3859 15.29404891311817 XW-3 (CAS-9) 1 50466U 21131B 26145.49319105 .00000642 00000+0 21212-3 0 9991 2 50466 98.4963 238.0075 0004633 151.5162 208.6281 14.41332823231840 GREENCUBE (IO-117) 1 53109U 22080E 26145.46138204 -.00000003 00000+0 00000+0 0 9998 2 53109 70.1431 306.1510 0008884 295.0612 64.9126 6.42583293 90600 UMKA 1 (RS40S) 1 57172U 23091G 26145.39211140 .00005781 00000+0 26711-3 0 9996 2 57172 97.5065 204.1802 0012613 191.8598 168.2342 15.20509812160542 CUBESX-HSE 3 (RS42S) 1 57178U 23091N 26145.49288581 .00012772 00000+0 43402-3 0 9990 2 57178 97.5104 210.8033 0011554 165.5853 194.5719 15.30544370160951 MONITOR-3 (RS58S) 1 57180U 23091Q 26145.53374612 .00010234 00000+0 38449-3 0 9995 2 57180 97.5097 208.8209 0012241 172.2617 187.8813 15.27306521160831 MONITOR-4 (RS57S) 1 57182U 23091S 26145.51419014 .00010243 00000+0 38370-3 0 9994 2 57182 97.5091 208.7710 0012228 172.7085 187.4334 15.27404862160833 MONITOR-2 (RS39S) 1 57184U 23091U 26145.51695271 .00004748 00000+0 23209-3 0 9995 2 57184 97.5088 203.9486 0011229 183.3091 176.8071 15.18661263160518 SVYATOBOR 1 (RS60S) 1 57187U 23091X 26145.50825708 .00008548 00000+0 33319-3 0 9992 2 57187 97.5102 209.2057 0010160 163.6722 196.4845 15.26160363160854 VIZARD-METEO (RS38S) 1 57189U 23091Z 26145.47132071 .00016038 00000+0 47102-3 0 9992 2 57189 97.5102 214.5139 0008611 145.1194 215.0614 15.35184727161204 POLYTECH-UNIVERSE 3 (R*) 1 57191U 23091AB 26145.48124299 .00004409 00000+0 21429-3 0 9992 2 57191 97.5062 203.4182 0015013 202.6335 157.4239 15.18859139160508 UTMN 2 (RS27S) 1 57203U 23091AP 26145.45768058 .00012970 00000+0 42949-3 0 9992 2 57203 97.5099 212.3732 0009155 151.6953 208.4787 15.31402028161064 KUZGTU 1 (RS47S) 1 57217U 23091AV 26145.46431932 .00012385 00000+0 43801-3 0 9994 2 57217 97.5077 209.7216 0011656 169.2057 190.9435 15.29251437160901 SONATE-2 1 59112U 24043Q 26145.39937572 .00036447 00000+0 50717-3 0 9990 2 59112 97.5510 294.4330 0005867 278.7110 81.3480 15.56867388124349 MESAT1 1 60209U 24125G 26145.49092103 .00048159 00000+0 58166-3 0 9992 2 60209 97.2333 2.4954 0008136 301.4584 58.5878 15.60560579106027 OOV-CUBE (TUBSAT-30) 1 60240U 24128F 26145.43134620 .00002651 00000+0 20894-3 0 9999 2 60240 61.9953 304.9145 0047533 128.7761 231.7591 15.02640154102691 COLIBRI-S (RS67S) 1 61746U 24199M 26145.49040742 .00021677 00000+0 43528-3 0 9994 2 61746 97.3033 19.1515 0008604 16.8827 343.2708 15.46645297133905 HORS 3 (RS81S) 1 61753U 24199U 26145.48975514 .00033968 00000+0 54012-3 0 9991 2 61753 97.3013 20.9035 0006806 26.9981 333.1625 15.53216721134038 HORS 4 (RS82S) 1 61754U 24199V 26145.51478038 .00044805 00000+0 61130-3 0 9996 2 61754 97.2966 21.9929 0005570 23.7354 336.4157 15.57357227134110 ARCTICSAT 1 (RS74S) 1 61762U 24199AD 26145.50906101 .00349661 47607-4 11331-2 0 9995 2 61762 97.2868 27.8956 0002396 154.1258 206.0135 15.90777534134493 SIT-2086 1 61764U 24199AF 26145.50488845 .00035458 00000+0 60284-3 0 9996 2 61764 97.2982 21.4725 0006524 4.9881 355.1435 15.51337418130919 HYPERVIEW 1G (RS66S) 1 61772U 24199AP 26145.47755046 .00101649 00000+0 84043-3 0 9996 2 61772 97.2928 24.1451 0004656 24.1451 336.0029 15.69959674131107 ALTAIR (RS65S) 1 61779U 24199AW 26145.51782956 .00009376 00000+0 26425-3 0 9992 2 61779 97.3064 15.0226 0013767 35.2569 324.9584 15.36550375133632 ASRTU-1 (AO-123) 1 61781U 24199AY 26145.48666188 .00007198 00000+0 21165-3 0 9995 2 61781 97.3036 14.3645 0014921 36.9266 323.3001 15.35292181130446 SAMSAT-IONOSPHERE (RS7*) 1 61784U 24199BB 26145.49501617 .00042995 00000+0 62942-3 0 9996 2 61784 97.2987 20.8803 0008764 21.0165 339.1448 15.55428541134034 RTU MIREA 1 (RS51S) 1 61785U 24199BC 26145.50203403 .00052538 00000+0 68831-3 0 9998 2 61785 97.2978 21.6109 0008299 18.5312 341.6245 15.58388086130931 TEVEL2-4 1 63213U 25052D 26145.22343642 .00017824 00000+0 54899-3 0 9992 2 63213 97.3933 41.5887 0003156 146.1812 213.9632 15.33682307 66592 TEVEL2-5 1 63214U 25052E 26145.43720551 .00017836 00000+0 55200-3 0 9994 2 63214 97.3930 41.7568 0003126 146.2117 213.9326 15.33530146 66621 TEVEL2-6 1 63215U 25052F 26145.25322801 .00018254 00000+0 56563-3 0 9999 2 63215 97.3934 41.5575 0003190 145.9761 214.1686 15.33485620 66598 TEVEL2-1 1 63217U 25052H 26145.14398839 .00017111 00000+0 53892-3 0 9996 2 63217 97.3906 41.0991 0002689 157.2132 202.9230 15.32981102 66568 TEVEL2-3 1 63218U 25052J 26145.13942102 .00016828 00000+0 52924-3 0 9993 2 63218 97.3907 41.1138 0002714 158.4259 201.7098 15.33030054 66567 TEVEL2-2 1 63219U 25052K 26144.68749553 .00014418 00000+0 45480-3 0 9990 2 63219 97.3903 40.6449 0002628 158.7421 201.3931 15.32970600 66494 TEVEL2-9 1 63237U 25052AD 26145.15794436 .00015408 00000+0 51499-3 0 9990 2 63237 97.3967 40.5389 0004981 204.9300 155.1701 15.31084761 66506 TEVEL2-7 1 63238U 25052AE 26145.45605118 .00015821 00000+0 53306-3 0 9990 2 63238 97.3970 40.7615 0005120 204.8677 155.2318 15.30818712 66546 TEVEL2-8 1 63239U 25052AF 26145.46405748 .00015914 00000+0 53647-3 0 9990 2 63239 97.3970 40.7471 0005114 205.0862 155.0131 15.30801513 66541 INNOSAT 16 (RS92S7) 1 64878U 25155C 26145.50059402 .00005365 00000+0 21661-3 0 9991 2 64878 97.4548 112.7074 0008499 265.2001 94.8267 15.25172783 77214 GEOSCAN 6 (RS92S6) 1 64879U 25155D 26145.48604411 .00009521 00000+0 33380-3 0 9994 2 64879 97.4541 113.9603 0005641 252.9921 107.0702 15.29655714 77292 GEOSCAN 1 (RS92S1) 1 64880U 25155E 26145.49704574 .00010224 00000+0 35218-3 0 9992 2 64880 97.4537 114.1002 0005522 252.6638 107.3998 15.30211301 77309 239ALFEROV (RS61S) 1 64881U 25155F 26145.49797948 .00013133 00000+0 42405-3 0 9998 2 64881 97.4539 114.5889 0004939 249.5599 110.5112 15.32239149 77330 GEOSCAN 2 (RS92S2) 1 64890U 25155Q 26145.49476539 .00009995 00000+0 34148-3 0 9994 2 64890 97.4536 114.2413 0005130 233.0218 127.0554 15.30485937 77314 GEOSCAN 5 (RS92S5) 1 64891U 25155R 26145.49170519 .00013149 00000+0 42042-3 0 9992 2 64891 97.4531 114.7113 0003798 257.7889 102.2927 15.32558380 77344 GEOSCAN 4 (RS92S4) 1 64892U 25155S 26145.47807264 .00013744 00000+0 43741-3 0 9993 2 64892 97.4534 114.7398 0003756 258.5559 101.5261 15.32694856 77342 GEOSCAN 3 (RS92S3) 1 64893U 25155T 26145.50703767 .00017188 00000+0 51577-3 0 9993 2 64893 97.4524 115.1357 0003462 256.5689 103.5168 15.34519090 77377 INNOSAT 3 (RS92S0) 1 64894U 25155U 26145.48480640 .00034241 00000+0 80208-3 0 9995 2 64894 97.4477 116.4686 0001874 238.7624 121.3439 15.42028001 77465 KNACKSAT-2 1 67683U 98067XZ 26145.01594193 .00040983 00000+0 54507-3 0 9997 2 67683 51.6300 50.8353 0011915 116.1156 244.1064 15.57682767 16663